QTR403 OJAI-OTHH

Flight info

Callsign QTR403
Flight time 2h 12m
Altitude 37000
Route KULDI N318 TAMRO T503 KSA N687 KINIB Z511 GISRA L681 ORLEK
Aircraft B77W/H-SDE1E2E3FGHIJ2J3J4J5M1RWXY/LB1D1

Departure

Time 2026-05-09 11:17
Airport Queen Alia International Airport (OJAI)

Arrival

Time 2026-05-09 13:29
Airport Hamad International Airport (OTHH)
Time Latitude Longitude Altitude Speed Heading
2026-05-09 11:01 31.72058 35.98887 2423 ft 0 kts 350°
2026-05-09 11:03 31.72046 35.98889 2420 ft 3 kts 350°
2026-05-09 11:04 31.72031 35.98892 2421 ft 3 kts 353°
2026-05-09 11:04 31.72013 35.98893 2420 ft 3 kts 14°
2026-05-09 11:04 31.72001 35.98888 2420 ft 3 kts 45°
2026-05-09 11:04 31.71993 35.98876 2418 ft 3 kts 76°
2026-05-09 11:05 31.71989 35.98853 2419 ft 3 kts 84°
2026-05-09 11:05 31.71988 35.98835 2419 ft 1 kts 80°
2026-05-09 11:05 31.71988 35.98834 2419 ft 0 kts 80°
2026-05-09 11:10 31.71989 35.98879 2422 ft 7 kts 106°
2026-05-09 11:10 31.71948 35.98908 2422 ft 7 kts 166°
2026-05-09 11:10 31.71899 35.98918 2420 ft 7 kts 171°
2026-05-09 11:10 31.71852 35.98937 2421 ft 7 kts 139°
2026-05-09 11:11 31.71851 35.98994 2421 ft 8 kts 79°
2026-05-09 11:11 31.71868 35.99105 2421 ft 22 kts 79°
2026-05-09 11:11 31.71900 35.99323 2420 ft 28 kts 80°
2026-05-09 11:11 31.71934 35.99550 2420 ft 28 kts 80°
2026-05-09 11:12 31.71967 35.99776 2421 ft 28 kts 80°
2026-05-09 11:12 31.72001 36.00002 2420 ft 28 kts 80°
2026-05-09 11:12 31.72033 36.00229 2420 ft 28 kts 81°
2026-05-09 11:12 31.72065 36.00456 2421 ft 28 kts 81°
2026-05-09 11:13 31.72098 36.00682 2420 ft 28 kts 79°
2026-05-09 11:13 31.72132 36.00904 2422 ft 28 kts 80°
2026-05-09 11:13 31.72165 36.01132 2421 ft 28 kts 80°
2026-05-09 11:13 31.72197 36.01358 2423 ft 28 kts 80°
2026-05-09 11:14 31.72230 36.01584 2422 ft 28 kts 80°
2026-05-09 11:14 31.72245 36.01761 2420 ft 12 kts 104°
2026-05-09 11:14 31.72198 36.01810 2419 ft 7 kts 169°
2026-05-09 11:14 31.72172 36.01813 2421 ft 1 kts 174°
2026-05-09 11:15 31.72163 36.01814 2422 ft 2 kts 173°
2026-05-09 11:15 31.72146 36.01817 2421 ft 4 kts 172°
2026-05-09 11:15 31.72074 36.01830 2422 ft 14 kts 171°
2026-05-09 11:15 31.71997 36.01823 2422 ft 9 kts 220°
2026-05-09 11:16 31.71975 36.01742 2424 ft 17 kts 259°
2026-05-09 11:16 31.71929 36.01425 2421 ft 71 kts 260°
2026-05-09 11:16 31.71806 36.00576 2421 ft 138 kts 260°
2026-05-09 11:16 31.71614 35.99256 2476 ft 181 kts 260°
2026-05-09 11:17 31.71415 35.97814 3001 ft 186 kts 259°
2026-05-09 11:17 31.71190 35.96296 3682 ft 188 kts 261°
2026-05-09 11:17 31.70960 35.94712 4049 ft 209 kts 260°
2026-05-09 11:17 31.70704 35.92936 4245 ft 239 kts 260°
2026-05-09 11:18 31.70240 35.90979 4487 ft 261 kts 238°
2026-05-09 11:18 31.68919 35.89520 5174 ft 267 kts 204°
2026-05-09 11:18 31.67125 35.88978 5929 ft 269 kts 187°
2026-05-09 11:18 31.65286 35.88687 6840 ft 269 kts 187°
2026-05-09 11:19 31.63392 35.88409 7633 ft 274 kts 187°
2026-05-09 11:19 31.61509 35.88134 8541 ft 274 kts 187°
2026-05-09 11:19 31.59620 35.87854 9410 ft 276 kts 187°
2026-05-09 11:19 31.57693 35.87562 10262 ft 279 kts 187°
2026-05-09 11:20 31.55782 35.87268 10953 ft 284 kts 187°
2026-05-09 11:20 31.53808 35.86963 11628 ft 291 kts 188°
2026-05-09 11:20 31.51780 35.86652 12380 ft 295 kts 186°
2026-05-09 11:20 31.49712 35.86851 12928 ft 306 kts 163°
2026-05-09 11:21 31.47843 35.88080 13641 ft 315 kts 139°
2026-05-09 11:21 31.46522 35.90134 14330 ft 321 kts 116°
2026-05-09 11:21 31.45845 35.92670 14785 ft 335 kts 103°
2026-05-09 11:21 31.45390 35.95458 14934 ft 360 kts 100°
2026-05-09 11:22 31.44978 35.98450 15108 ft 384 kts 99°
2026-05-09 11:22 31.44560 36.01610 15513 ft 399 kts 99°
2026-05-09 11:22 31.44130 36.04814 16107 ft 407 kts 99°
2026-05-09 11:22 31.43677 36.08094 16797 ft 413 kts 99°
2026-05-09 11:23 31.43204 36.11430 17532 ft 418 kts 100°
2026-05-09 11:23 31.42714 36.14807 18264 ft 423 kts 100°
2026-05-09 11:23 31.42211 36.18226 18911 ft 428 kts 100°
2026-05-09 11:23 31.41701 36.21671 19569 ft 432 kts 100°
2026-05-09 11:24 31.41179 36.25169 20263 ft 437 kts 100°
2026-05-09 11:24 31.40654 36.28676 20938 ft 441 kts 100°
2026-05-09 11:24 31.40129 36.32186 21586 ft 446 kts 100°
2026-05-09 11:24 31.39597 36.35729 22232 ft 451 kts 100°
2026-05-09 11:25 31.39043 36.39413 22891 ft 456 kts 100°
2026-05-09 11:25 31.38489 36.43094 23525 ft 461 kts 100°
2026-05-09 11:25 31.37928 36.46813 24064 ft 466 kts 100°
2026-05-09 11:25 31.37361 36.50562 24605 ft 471 kts 100°
2026-05-09 11:26 31.36782 36.54386 25145 ft 475 kts 100°
2026-05-09 11:26 31.36198 36.58235 25674 ft 480 kts 100°
2026-05-09 11:26 31.35613 36.62083 26206 ft 484 kts 100°
2026-05-09 11:26 31.35020 36.65979 26742 ft 488 kts 100°
2026-05-09 11:27 31.34419 36.69912 27272 ft 493 kts 100°
2026-05-09 11:27 31.33812 36.73879 27765 ft 497 kts 100°
2026-05-09 11:27 31.33200 36.77871 28260 ft 502 kts 101°
2026-05-09 11:27 31.32579 36.81907 28769 ft 506 kts 101°
2026-05-09 11:28 31.31955 36.85961 29268 ft 510 kts 101°
2026-05-09 11:28 31.31327 36.90028 29709 ft 514 kts 101°
2026-05-09 11:28 31.30691 36.94142 30127 ft 518 kts 101°
2026-05-09 11:28 31.30046 36.98298 30527 ft 521 kts 101°
2026-05-09 11:29 31.29399 37.02464 30937 ft 523 kts 100°
2026-05-09 11:29 31.28749 37.06642 31381 ft 523 kts 100°
2026-05-09 11:29 31.28095 37.10830 31890 ft 522 kts 100°
2026-05-09 11:29 31.27443 37.15003 32423 ft 520 kts 100°
2026-05-09 11:30 31.26793 37.19153 32947 ft 519 kts 100°
2026-05-09 11:30 31.26108 37.23290 33428 ft 518 kts 103°
2026-05-09 11:30 31.25153 37.27350 33884 ft 518 kts 109°
2026-05-09 11:30 31.23976 37.31270 34299 ft 517 kts 110°
2026-05-09 11:31 31.22740 37.35270 34681 ft 516 kts 110°
2026-05-09 11:31 31.21539 37.39162 35032 ft 516 kts 110°
2026-05-09 11:31 31.20336 37.43100 35384 ft 516 kts 110°
2026-05-09 11:31 31.19138 37.47066 35744 ft 516 kts 110°
2026-05-09 11:32 31.17955 37.51008 36109 ft 515 kts 110°
2026-05-09 11:32 31.16770 37.54956 36447 ft 515 kts 110°
2026-05-09 11:32 31.15580 37.58906 36760 ft 515 kts 110°
2026-05-09 11:32 31.14384 37.62854 36973 ft 516 kts 110°
2026-05-09 11:33 31.13184 37.66798 37001 ft 516 kts 111°
2026-05-09 11:33 31.09583 37.78577 37026 ft 515 kts 111°
2026-05-09 11:34 31.07174 37.86443 37022 ft 515 kts 111°
2026-05-09 11:34 31.04764 37.94300 37033 ft 515 kts 111°
2026-05-09 11:35 31.02349 38.02151 37028 ft 515 kts 111°
2026-05-09 11:35 30.99926 38.10010 37040 ft 515 kts 111°
2026-05-09 11:36 30.97518 38.17802 37036 ft 515 kts 111°
2026-05-09 11:36 30.95080 38.25669 37041 ft 515 kts 112°
2026-05-09 11:37 30.92650 38.33495 37038 ft 515 kts 112°
2026-05-09 11:37 30.90204 38.41348 37048 ft 515 kts 112°
2026-05-09 11:38 30.87775 38.49131 37042 ft 515 kts 112°
2026-05-09 11:38 30.85325 38.56964 37055 ft 515 kts 112°
2026-05-09 11:39 30.82870 38.64793 37050 ft 515 kts 112°
2026-05-09 11:39 30.81636 38.68723 36919 ft 519 kts 114°
2026-05-09 11:40 30.79123 38.76645 37062 ft 525 kts 116°
2026-05-09 11:40 30.76041 38.84251 37064 ft 523 kts 121°
2026-05-09 11:41 30.72765 38.91770 37086 ft 521 kts 121°
2026-05-09 11:41 30.69504 38.99291 37084 ft 521 kts 121°
2026-05-09 11:42 30.66265 39.06822 37068 ft 521 kts 121°
2026-05-09 11:42 30.63037 39.14336 37091 ft 521 kts 121°
2026-05-09 11:43 30.59812 39.21824 37092 ft 521 kts 121°
2026-05-09 11:43 30.56571 39.29330 37087 ft 521 kts 121°
2026-05-09 11:44 30.53326 39.36830 37100 ft 520 kts 121°
2026-05-09 11:44 30.50092 39.44289 37103 ft 520 kts 121°
2026-05-09 11:45 30.46839 39.51779 37104 ft 520 kts 121°
2026-05-09 11:45 30.43582 39.59264 37105 ft 520 kts 121°
2026-05-09 11:46 30.40059 39.66561 37103 ft 515 kts 130°
2026-05-09 11:46 30.35803 39.73193 37109 ft 513 kts 132°
2026-05-09 11:47 30.31495 39.79772 37109 ft 513 kts 132°
2026-05-09 11:47 30.27243 39.86328 37107 ft 513 kts 131°
2026-05-09 11:48 30.22964 39.92959 37108 ft 513 kts 131°
2026-05-09 11:48 30.18695 39.99570 37102 ft 513 kts 131°
2026-05-09 11:49 30.14419 40.06174 37100 ft 513 kts 131°
2026-05-09 11:49 30.10133 40.12782 37100 ft 513 kts 131°
2026-05-09 11:50 30.05880 40.19329 37101 ft 513 kts 131°
2026-05-09 11:50 30.01593 40.25919 37102 ft 513 kts 131°
2026-05-09 11:51 29.97298 40.32501 37099 ft 513 kts 131°
2026-05-09 11:51 29.93025 40.39030 37093 ft 513 kts 131°
2026-05-09 11:52 29.88724 40.45593 37099 ft 513 kts 131°
2026-05-09 11:52 29.84423 40.52150 37088 ft 513 kts 131°
2026-05-09 11:53 29.80127 40.58691 37094 ft 512 kts 131°
2026-05-09 11:53 29.75917 40.65259 37090 ft 515 kts 127°
2026-05-09 11:54 29.72138 40.72252 37098 ft 516 kts 125°
2026-05-09 11:54 29.68400 40.79292 37092 ft 515 kts 125°
2026-05-09 11:55 29.64643 40.86307 37096 ft 515 kts 125°
2026-05-09 11:56 29.53324 41.07230 37087 ft 515 kts 126°
2026-05-09 11:57 29.49541 41.14200 37088 ft 515 kts 126°
2026-05-09 11:57 29.45756 41.21166 37087 ft 515 kts 126°
2026-05-09 11:58 29.41965 41.28130 37083 ft 515 kts 126°
2026-05-09 11:58 29.38192 41.35050 37085 ft 514 kts 126°
2026-05-09 11:59 29.34401 41.41985 37084 ft 514 kts 126°
2026-05-09 11:59 29.30589 41.48936 37081 ft 514 kts 126°
2026-05-09 12:00 29.26806 41.55826 37077 ft 514 kts 126°
2026-05-09 12:00 29.22997 41.62753 37078 ft 514 kts 126°
2026-05-09 12:01 29.19186 41.69676 37078 ft 514 kts 126°
2026-05-09 12:01 29.15367 41.76599 37078 ft 514 kts 126°
2026-05-09 12:02 29.11546 41.83517 37080 ft 514 kts 126°
2026-05-09 12:02 29.07750 41.90377 37075 ft 514 kts 126°
2026-05-09 12:03 29.03928 41.97273 37091 ft 514 kts 126°
2026-05-09 12:03 29.00103 42.04164 37070 ft 513 kts 126°
2026-05-09 12:04 28.96276 42.11052 37069 ft 513 kts 126°
2026-05-09 12:04 28.92472 42.17888 37086 ft 513 kts 126°
2026-05-09 12:05 28.88650 42.24746 37076 ft 512 kts 126°
2026-05-09 12:05 28.84826 42.31595 37064 ft 512 kts 126°
2026-05-09 12:06 28.80997 42.38443 37071 ft 511 kts 126°
2026-05-09 12:06 28.77196 42.45228 37065 ft 511 kts 126°
2026-05-09 12:07 28.73382 42.52028 37066 ft 510 kts 126°
2026-05-09 12:07 28.69547 42.58855 37068 ft 510 kts 126°
2026-05-09 12:08 28.65725 42.65637 37066 ft 509 kts 128°
2026-05-09 12:08 28.61360 42.71890 37061 ft 502 kts 137°
2026-05-09 12:09 28.56610 42.77645 37064 ft 502 kts 138°
2026-05-09 12:09 28.51833 42.83426 37058 ft 501 kts 138°
2026-05-09 12:10 28.42343 42.95018 37057 ft 500 kts 137°
2026-05-09 12:11 28.37638 43.00766 37058 ft 500 kts 137°
2026-05-09 12:11 28.32897 43.06547 37060 ft 500 kts 138°
2026-05-09 12:12 28.28162 43.12312 37054 ft 499 kts 138°
2026-05-09 12:12 28.23423 43.18073 37048 ft 499 kts 138°
2026-05-09 12:13 28.18680 43.23830 37044 ft 499 kts 138°
2026-05-09 12:13 28.13945 43.29572 37036 ft 498 kts 138°
2026-05-09 12:14 28.09248 43.35258 37046 ft 498 kts 138°
2026-05-09 12:14 28.04512 43.40985 37042 ft 498 kts 138°
2026-05-09 12:15 27.99782 43.46696 37038 ft 497 kts 138°
2026-05-09 12:15 27.95045 43.52408 37029 ft 497 kts 138°
2026-05-09 12:16 27.90347 43.58066 37047 ft 497 kts 138°
2026-05-09 12:16 27.85613 43.63760 37024 ft 497 kts 138°
2026-05-09 12:17 27.80796 43.69326 37019 ft 494 kts 141°
2026-05-09 12:17 27.75811 43.74669 37014 ft 494 kts 142°
2026-05-09 12:18 27.70865 43.79957 37034 ft 493 kts 142°
2026-05-09 12:18 27.65904 43.85322 37025 ft 494 kts 141°
2026-05-09 12:19 27.60964 43.90687 37029 ft 493 kts 141°
2026-05-09 12:19 27.56017 43.96053 37028 ft 493 kts 141°
2026-05-09 12:20 27.51107 44.01368 37029 ft 493 kts 141°
2026-05-09 12:20 27.46150 44.06726 37024 ft 493 kts 141°
2026-05-09 12:21 27.41209 44.12061 37025 ft 493 kts 141°
2026-05-09 12:21 27.36257 44.17399 37024 ft 492 kts 141°
2026-05-09 12:22 27.31308 44.22729 37024 ft 492 kts 141°
2026-05-09 12:22 27.26397 44.28011 37026 ft 492 kts 142°
2026-05-09 12:23 27.21481 44.33290 37017 ft 492 kts 142°
2026-05-09 12:23 27.16513 44.38620 37019 ft 491 kts 142°
2026-05-09 12:24 27.11565 44.43912 37020 ft 491 kts 142°
2026-05-09 12:24 27.06667 44.49143 37022 ft 490 kts 142°
2026-05-09 12:25 27.01723 44.54421 37026 ft 489 kts 142°
2026-05-09 12:25 26.96792 44.59680 37019 ft 489 kts 143°
2026-05-09 12:26 26.91869 44.64939 37025 ft 488 kts 143°
2026-05-09 12:26 26.86993 44.70145 37027 ft 488 kts 143°
2026-05-09 12:27 26.82076 44.75387 37024 ft 487 kts 143°
2026-05-09 12:27 26.77171 44.80609 37026 ft 487 kts 144°
2026-05-09 12:28 26.73091 44.84933 37029 ft 487 kts 144°
2026-05-09 12:28 26.67363 44.90982 37028 ft 487 kts 144°
2026-05-09 12:29 26.62443 44.96176 37037 ft 487 kts 144°
2026-05-09 12:29 26.58352 45.00491 37032 ft 487 kts 145°
2026-05-09 12:30 26.53430 45.05679 37035 ft 487 kts 145°
2026-05-09 12:30 26.46038 45.13466 37043 ft 487 kts 146°
2026-05-09 12:31 26.38645 45.21242 37031 ft 487 kts 146°
2026-05-09 12:32 26.33713 45.26422 37033 ft 487 kts 146°
2026-05-09 12:32 26.28804 45.31573 37033 ft 487 kts 146°
2026-05-09 12:33 26.23878 45.36763 37032 ft 488 kts 146°
2026-05-09 12:33 26.19008 45.41892 37032 ft 488 kts 146°
2026-05-09 12:34 26.14012 45.47134 37027 ft 487 kts 146°
2026-05-09 12:34 26.09098 45.52263 37031 ft 487 kts 146°
2026-05-09 12:35 26.04150 45.57424 37031 ft 487 kts 146°
2026-05-09 12:35 25.99206 45.62581 37020 ft 488 kts 146°
2026-05-09 12:36 25.94265 45.67731 37034 ft 488 kts 146°
2026-05-09 12:36 25.89430 45.72967 37009 ft 498 kts 137°
2026-05-09 12:36 25.87547 45.76283 37037 ft 519 kts 123°
2026-05-09 12:37 25.86333 45.80122 37026 ft 538 kts 108°
2026-05-09 12:37 25.85656 45.88460 37015 ft 543 kts 98°
2026-05-09 12:38 25.85319 45.96770 37023 ft 540 kts 98°
2026-05-09 12:38 25.84911 46.05085 37016 ft 540 kts 99°
2026-05-09 12:39 25.84411 46.13403 37020 ft 540 kts 99°
2026-05-09 12:39 25.83879 46.21712 37017 ft 540 kts 99°
2026-05-09 12:40 25.83349 46.29971 37028 ft 539 kts 99°
2026-05-09 12:40 25.82818 46.38277 37027 ft 539 kts 99°
2026-05-09 12:41 25.82285 46.46575 37027 ft 539 kts 99°
2026-05-09 12:41 25.81749 46.54862 37020 ft 539 kts 99°
2026-05-09 12:42 25.81207 46.63144 37023 ft 539 kts 99°
2026-05-09 12:42 25.80662 46.71402 37022 ft 539 kts 99°
2026-05-09 12:43 25.80109 46.79703 37020 ft 539 kts 99°
2026-05-09 12:43 25.79554 46.87971 37014 ft 538 kts 99°
2026-05-09 12:44 25.78993 46.96267 37013 ft 538 kts 99°
2026-05-09 12:44 25.78432 47.04479 37018 ft 538 kts 99°
2026-05-09 12:45 25.77862 47.12757 37014 ft 537 kts 99°
2026-05-09 12:45 25.77290 47.21004 37016 ft 537 kts 99°
2026-05-09 12:46 25.76716 47.29201 37011 ft 536 kts 100°
2026-05-09 12:46 25.76136 47.37420 37010 ft 535 kts 100°
2026-05-09 12:47 25.75551 47.45659 37004 ft 534 kts 100°
2026-05-09 12:47 25.74967 47.53803 36991 ft 534 kts 100°
2026-05-09 12:48 25.74373 47.62008 36993 ft 533 kts 100°
2026-05-09 12:48 25.73773 47.70254 36988 ft 532 kts 100°
2026-05-09 12:49 25.73177 47.78376 36992 ft 532 kts 100°
2026-05-09 12:49 25.72573 47.86547 36984 ft 531 kts 100°
2026-05-09 12:50 25.71964 47.94715 36984 ft 531 kts 100°
2026-05-09 12:50 25.71352 48.02866 36978 ft 531 kts 100°
2026-05-09 12:51 25.70740 48.10956 36973 ft 530 kts 99°
2026-05-09 12:51 25.70118 48.19120 36969 ft 530 kts 99°
2026-05-09 12:52 25.69494 48.27250 36965 ft 530 kts 99°
2026-05-09 12:52 25.68864 48.35403 36962 ft 530 kts 99°
2026-05-09 12:53 25.68262 48.43552 36952 ft 531 kts 99°
2026-05-09 12:53 25.67759 48.51657 36954 ft 532 kts 98°
2026-05-09 12:54 25.67260 48.59865 36950 ft 533 kts 98°
2026-05-09 12:54 25.66740 48.68062 36954 ft 533 kts 98°
2026-05-09 12:55 25.66212 48.76176 36946 ft 533 kts 99°
2026-05-09 12:55 25.65668 48.84466 36944 ft 534 kts 99°
2026-05-09 12:56 25.65129 48.92614 36938 ft 534 kts 99°
2026-05-09 12:56 25.64583 49.00824 36937 ft 535 kts 99°
2026-05-09 12:57 25.64041 49.08932 36924 ft 526 kts 99°
2026-05-09 12:57 25.63496 49.17001 36783 ft 516 kts 99°
2026-05-09 12:57 25.63228 49.20950 36438 ft 510 kts 99°
2026-05-09 12:58 25.62960 49.24847 35974 ft 507 kts 99°
2026-05-09 12:58 25.62698 49.28640 35466 ft 505 kts 99°
2026-05-09 12:58 25.62429 49.32533 35013 ft 502 kts 99°
2026-05-09 12:58 25.62161 49.36397 34605 ft 498 kts 100°
2026-05-09 12:59 25.61894 49.40210 34227 ft 493 kts 100°
2026-05-09 12:59 25.61628 49.43985 33834 ft 489 kts 100°
2026-05-09 12:59 25.61362 49.47726 33372 ft 486 kts 100°
2026-05-09 12:59 25.61097 49.51441 32900 ft 484 kts 100°
2026-05-09 13:00 25.60832 49.55146 32443 ft 481 kts 100°
2026-05-09 13:00 25.60567 49.58834 32016 ft 477 kts 100°
2026-05-09 13:00 25.60307 49.62463 31603 ft 474 kts 100°
2026-05-09 13:00 25.60047 49.66066 31208 ft 470 kts 100°
2026-05-09 13:01 25.59788 49.69646 30806 ft 467 kts 100°
2026-05-09 13:01 25.59528 49.73228 30398 ft 464 kts 100°
2026-05-09 13:01 25.59268 49.76791 30008 ft 461 kts 100°
2026-05-09 13:01 25.59010 49.80310 29564 ft 458 kts 100°
2026-05-09 13:02 25.58753 49.83814 29176 ft 454 kts 100°
2026-05-09 13:02 25.58498 49.87289 28766 ft 450 kts 99°
2026-05-09 13:02 25.58244 49.90723 28333 ft 446 kts 99°
2026-05-09 13:02 25.57991 49.94135 27926 ft 443 kts 99°
2026-05-09 13:03 25.57742 49.97481 27518 ft 440 kts 99°
2026-05-09 13:03 25.57491 50.00851 27139 ft 437 kts 99°
2026-05-09 13:03 25.57242 50.04176 26740 ft 434 kts 99°
2026-05-09 13:03 25.56992 50.07508 26235 ft 434 kts 99°
2026-05-09 13:04 25.56742 50.10826 25739 ft 434 kts 99°
2026-05-09 13:04 25.56488 50.14181 25219 ft 435 kts 98°
2026-05-09 13:04 25.56106 50.17487 24720 ft 433 kts 104°
2026-05-09 13:04 25.55424 50.20718 24258 ft 428 kts 112°
2026-05-09 13:05 25.54498 50.23826 23868 ft 424 kts 113°
2026-05-09 13:05 25.53561 50.26860 23546 ft 420 kts 113°
2026-05-09 13:05 25.52616 50.29905 23138 ft 416 kts 113°
2026-05-09 13:05 25.51685 50.32919 22721 ft 413 kts 113°
2026-05-09 13:06 25.50763 50.35924 22300 ft 410 kts 112°
2026-05-09 13:06 25.49851 50.38909 21903 ft 407 kts 112°
2026-05-09 13:06 25.48947 50.41870 21511 ft 403 kts 112°
2026-05-09 13:06 25.48058 50.44790 21126 ft 400 kts 112°
2026-05-09 13:07 25.47175 50.47685 20957 ft 398 kts 112°
2026-05-09 13:07 25.46287 50.50593 20903 ft 398 kts 112°
2026-05-09 13:07 25.45406 50.53473 20932 ft 407 kts 112°
2026-05-09 13:07 25.44463 50.56544 20943 ft 436 kts 112°
2026-05-09 13:08 25.43397 50.59737 20902 ft 445 kts 118°
2026-05-09 13:08 25.41910 50.62731 20926 ft 444 kts 127°
2026-05-09 13:08 25.40008 50.65398 20901 ft 440 kts 137°
2026-05-09 13:08 25.37856 50.67761 20787 ft 436 kts 141°
2026-05-09 13:09 25.35619 50.70019 20380 ft 431 kts 142°
2026-05-09 13:09 25.33398 50.72192 19851 ft 428 kts 142°
2026-05-09 13:09 25.31177 50.74332 19266 ft 426 kts 142°
2026-05-09 13:09 25.28953 50.76453 18729 ft 424 kts 142°
2026-05-09 13:10 25.26702 50.78583 18223 ft 421 kts 142°
2026-05-09 13:10 25.24485 50.80665 17661 ft 417 kts 142°
2026-05-09 13:10 25.22279 50.82721 17166 ft 416 kts 142°
2026-05-09 13:10 25.20055 50.84781 16796 ft 415 kts 142°
2026-05-09 13:11 25.17865 50.86795 16436 ft 413 kts 142°
2026-05-09 13:11 25.15635 50.88836 16065 ft 412 kts 142°
2026-05-09 13:11 25.13436 50.90842 15697 ft 410 kts 142°
2026-05-09 13:11 25.11230 50.92847 15339 ft 409 kts 142°
2026-05-09 13:12 25.09048 50.94823 14985 ft 408 kts 142°
2026-05-09 13:12 25.06848 50.96808 14639 ft 407 kts 142°
2026-05-09 13:12 25.04661 50.98772 14286 ft 405 kts 142°
2026-05-09 13:12 25.02465 51.00738 13934 ft 404 kts 142°
2026-05-09 13:13 25.00280 51.02687 13585 ft 403 kts 142°
2026-05-09 13:13 24.98105 51.04622 13191 ft 402 kts 142°
2026-05-09 13:13 24.95939 51.06548 12823 ft 400 kts 142°
2026-05-09 13:13 24.93797 51.08452 12452 ft 399 kts 142°
2026-05-09 13:14 24.91643 51.10368 12084 ft 397 kts 142°
2026-05-09 13:14 24.89505 51.12270 11712 ft 395 kts 142°
2026-05-09 13:16 24.75982 51.24643 10963 ft 312 kts 123°
2026-05-09 13:16 24.75174 51.26768 10928 ft 305 kts 98°
2026-05-09 13:16 24.75173 51.29054 10648 ft 302 kts 79°
2026-05-09 13:16 24.75582 51.31342 10439 ft 303 kts 75°
2026-05-09 13:17 24.76058 51.33604 10221 ft 304 kts 74°
2026-05-09 13:17 24.76545 51.35869 9994 ft 304 kts 73°
2026-05-09 13:17 24.77031 51.38131 9757 ft 303 kts 73°
2026-05-09 13:17 24.77510 51.40358 9510 ft 302 kts 73°
2026-05-09 13:18 24.77998 51.42626 9255 ft 300 kts 73°
2026-05-09 13:18 24.78473 51.44823 9000 ft 298 kts 73°
2026-05-09 13:18 24.78956 51.47035 8776 ft 297 kts 73°
2026-05-09 13:18 24.79439 51.49239 8538 ft 295 kts 73°
2026-05-09 13:19 24.79920 51.51430 8300 ft 293 kts 73°
2026-05-09 13:19 24.80584 51.53493 8009 ft 284 kts 54°
2026-05-09 13:19 24.81886 51.55087 7795 ft 278 kts 37°
2026-05-09 13:19 24.83389 51.56435 7584 ft 279 kts 34°
2026-05-09 13:20 24.84946 51.57709 7341 ft 278 kts 30°
2026-05-09 13:20 24.86546 51.58866 7104 ft 275 kts 29°
2026-05-09 13:20 24.88154 51.60001 6879 ft 273 kts 29°
2026-05-09 13:20 24.89730 51.61120 6585 ft 270 kts 29°
2026-05-09 13:21 24.91277 51.62227 6211 ft 266 kts 30°
2026-05-09 13:21 24.92800 51.63327 5841 ft 258 kts 29°
2026-05-09 13:21 24.94279 51.64400 5537 ft 248 kts 29°
2026-05-09 13:21 24.95682 51.65421 5267 ft 238 kts 28°
2026-05-09 13:22 24.97039 51.66410 4945 ft 229 kts 28°
2026-05-09 13:22 24.98341 51.67360 4648 ft 222 kts 28°
2026-05-09 13:22 24.99619 51.68292 4394 ft 218 kts 27°
2026-05-09 13:23 25.04680 51.69472 3488 ft 195 kts 345°
2026-05-09 13:23 25.05974 51.69074 3445 ft 191 kts 342°
2026-05-09 13:24 25.07226 51.68594 3325 ft 189 kts 339°
2026-05-09 13:24 25.08425 51.68086 3192 ft 186 kts 339°
2026-05-09 13:24 25.09615 51.67567 3086 ft 179 kts 339°
2026-05-09 13:24 25.10703 51.67088 2938 ft 170 kts 339°
2026-05-09 13:25 25.11771 51.66617 2763 ft 161 kts 339°
2026-05-09 13:25 25.12803 51.66162 2551 ft 158 kts 339°
2026-05-09 13:25 25.14807 51.65278 2161 ft 152 kts 339°
2026-05-09 13:26 25.15771 51.64853 1988 ft 146 kts 339°
2026-05-09 13:26 25.16688 51.64447 1783 ft 142 kts 339°
2026-05-09 13:26 25.17602 51.64043 1622 ft 141 kts 340°
2026-05-09 13:26 25.18515 51.63642 1431 ft 141 kts 340°
2026-05-09 13:27 25.19428 51.63240 1248 ft 141 kts 339°
2026-05-09 13:27 25.20339 51.62835 1076 ft 142 kts 340°
2026-05-09 13:27 25.21255 51.62431 896 ft 142 kts 342°
2026-05-09 13:27 25.22169 51.62029 731 ft 142 kts 343°
2026-05-09 13:28 25.23091 51.61621 561 ft 142 kts 343°
2026-05-09 13:28 25.24011 51.61210 376 ft 143 kts 342°
2026-05-09 13:28 25.24928 51.60816 203 ft 144 kts 343°
2026-05-09 13:28 25.25858 51.60413 39 ft 144 kts 341°
2026-05-09 13:29 25.26708 51.60037 24 ft 112 kts 338°
2026-05-09 13:29 25.27180 51.59836 21 ft 49 kts 349°
2026-05-09 13:29 25.27373 51.59837 26 ft 14 kts
2026-05-09 13:29 25.27421 51.59868 27 ft 8 kts 59°
2026-05-09 13:30 25.27411 51.59923 28 ft 8 kts 130°
2026-05-09 13:30 25.27361 51.59953 31 ft 8 kts 160°
2026-05-09 13:30 25.27307 51.59975 28 ft 9 kts 160°
2026-05-09 13:30 25.27249 51.59999 30 ft 9 kts 159°
2026-05-09 13:31 25.27185 51.60026 28 ft 10 kts 159°
2026-05-09 13:31 25.27116 51.60057 29 ft 11 kts 157°
2026-05-09 13:31 25.27040 51.60093 26 ft 13 kts 157°
2026-05-09 13:31 25.26962 51.60128 28 ft 9 kts 154°
2026-05-09 13:32 25.26952 51.60189 28 ft 9 kts 74°
2026-05-09 13:32 25.27026 51.60408 27 ft 16 kts 68°
2026-05-09 13:32 25.27067 51.60516 27 ft 14 kts 66°
2026-05-09 13:33 25.27099 51.60605 27 ft 12 kts 68°
2026-05-09 13:33 25.27103 51.60684 27 ft 9 kts 130°
2026-05-09 13:33 25.27052 51.60728 27 ft 10 kts 110°
2026-05-09 13:33 25.27061 51.60780 27 ft 5 kts 91°
2026-05-09 13:34 25.27032 51.60798 27 ft 5 kts 165°
2026-05-09 13:34 25.26995 51.60811 27 ft 5 kts 158°
2026-05-09 13:34 25.26987 51.60815 27 ft 2 kts 158°
2026-05-09 13:34 25.26975 51.60821 27 ft 2 kts 158°
2026-05-09 13:35 25.26967 51.60824 27 ft 0 kts 157°